Location: Iesi
(43.5167°N, 13.2333°E)
Time: 16:52:39
(UTC+00:00)

Meteor 1-19 Rocket - Pass Details

Date: 08 August 2020
Orbit: 811 x 924 km, 81.2° (Epoch: 23 September)

Event Time Altitude Azimuth Distance (km) Brightness Sun altitude
Rises 20:33:09 0° 354° (N) 3,345 8.2 -20.4°
Reaches altitude 10° 20:35:37 10° 360° (N) 2,407 7.2 -20.6°
Maximum altitude 20:40:53 50° 75° (ENE) 1,027 4.4 -21.3°
Enters shadow 20:42:04 43° 114° (ESE) 1,140 4.4 -21.4°
